SCP
7 6 6 5 5 5 5 5 5 5 5 5 4 3 2 2 2 3 3 3 3 3 4 4 4 3 3 2 2 2 2 3 3 3 5 6 5 3 2 3 2 2 1
8 7 6 5 6 6 6 5 5 5 5 5 4 4 3 3 2 3 3 3 3 3 3 4 4 4 3 3 3 2 3 3 4 4 5 5 4 3 3 3 2 2 1
9 8 7 6 6 7 7 6 6 5 5 5 4 4 4 3 3 3 3 3 3 3 3 4 4 4 4 4 3 3 3 4 5 4 4 4 3 3 3 3 2 2 1
10 9 8 8 8 9 9 8 6 5 4 4 4 4 4 4 3 3 3 3 3 3 3 3 4 4 4 4 4 4 4 5 5 4 4 4 3 3 3 3 3 2 2
12 10 10 10 10 11 10 9 7 6 5 4 4 4 4 3 3 2 3 3 3 3 3 4 4 3 3 3 3 4 4 4 4 4 4 4 3 3 3 3 3 3 2
15 13 12 11 11 11 11 9 8 6 5 5 4 4 3 3 2 2 2 3 3 4 4 4 4 3 3 3 3 3 3 3 3 4 4 3 3 3 4 4 3 3 3
16 14 12 11 10 10 9 8 7 6 5 5 4 4 4 3 2 2 2 3 3 4 4 5 4 4 3 3 3 3 3 3 2 3 3 3 3 4 4 4 4 4 4
13 12 10 9 8 8 7 6 6 5 5 5 5 4 4 3 3 2 2 3 3 4 4 5 6 6 5 5 5 6 6 5 3 1 2 2 3 3 4 4 4 4 4
9 8 8 8 7 7 6 6 5 5 5 5 4 4 4 3 3 2 2 3 3 3 4 5 5 6 6 5 6 8 9 7 3 1 1 1 2 2 2 3 4 4 3
8 7 7 7 7 7 7 7 7 6 5 4 4 4 4 4 4 3 2 3 4 4 4 4 4 4 4 4 5 7 8 6 4 2 2 2 2 1 2 3 4 4 4
8 8 7 7 7 7 8 9 8 7 6 4 4 4 4 5 5 3 2 3 4 4 5 4 3 2 2 2 3 5 6 5 4 3 3 3 3 2 2 3 4 4 4
8 8 7 7 6 6 7 7 7 6 5 4 4 4 4 5 5 4 2 2 3 4 5 4 3 2 1 1 1 2 3 3 4 4 4 4 3 3 3 4 4 3 3
9 9 8 7 6 6 6 5 5 5 4 4 4 4 4 5 5 4 2 1 1 3 4 3 2 1 1 1 1 1 1 3 4 5 4 4 4 4 4 5 4 4 4
10 10 8 7 6 6 5 5 4 4 4 4 4 4 4 5 5 5 4 2 2 2 2 2 2 2 2 2 2 1 2 3 4 4 4 4 4 4 5 6 7 6 6
11 10 7 6 5 5 4 4 4 4 3 3 4 4 4 4 4 5 4 4 3 3 3 4 4 4 4 4 4 4 4 4 4 4 4 4 5 5 6 7 8 8 7
10 8 6 5 5 5 4 4 4 3 2 2 2 3 3 3 3 3 3 2 2 2 4 5 5 5 5 5 5 5 5 6 6 5 5 5 6 6 6 7 8 8 7
8 6 5 4 4 5 4 4 4 3 2 1 1 1 2 1 1 1 1 1 0 1 3 4 4 4 5 6 6 6 7 7 7 7 7 6 6 6 7 7 7 7 6
6 5 4 4 4 4 5 5 4 3 3 2 1 1 1 0 0 0 0 0 1 1 2 3 3 3 4 5 6 6 7 7 7 7 7 7 7 7 7 7 7 7 7
6 5 4 3 3 4 4 4 3 4 5 5 3 2 1 0 0 0 1 1 1 2 2 3 3 3 3 4 5 6 7 7 7 8 8 8 7 7 7 7 8 8 8
6 5 4 3 3 3 3 3 3 4 6 6 5 3 1 1 1 1 1 2 2 2 3 3 3 3 3 3 4 5 6 7 7 8 8 8 8 8 8 8 8 8 8
7 5 3 3 3 3 3 3 3 4 6 6 5 3 2 2 2 2 2 2 2 2 3 3 3 3 3 3 3 3 4 5 6 7 7 8 9 9 9 9 8 8 8
6 5 4 3 3 3 3 4 5 6 7 5 4 3 3 3 3 3 3 3 3 2 2 2 2 2 2 2 2 2 2 2 3 4 5 7 8 9 9 8 8 7 7
5 4 4 4 4 4 5 7 8 8 7 5 4 4 4 3 3 3 4 4 4 3 2 1 1 1 1 1 1 1 1 1 2 2 4 5 6 7 8 7 6 6 6
4 3 3 4 5 7 8 9 9 8 6 5 5 5 4 4 3 3 4 5 4 3 2 2 2 2 2 1 1 1 1 1 1 2 2 3 3 4 5 5 4 4 4
3 4 5 6 7 8 8 8 7 6 5 5 5 5 4 4 3 3 4 3 3 2 2 3 2 2 2 2 2 1 0 0 1 1 2 2 2 2 3 4 4 3 4
3 4 8 10 9 7 6 5 5 4 3 3 4 4 4 3 3 3 3 2 2 2 3 3 2 2 3 3 2 1 0 0 0 0 1 1 1 1 2 3 3 3 4
Wind_Speed
6 5 4 4 4 3 2 1 2 2 2 1 2 2 2 2 1 1 1 1 1 1 1 1 1 1 1 1 1 1 1 1 1 1 0 0 1 1 2 2 3 4 4
6 5 4 4 3 3 3 2 2 2 2 2 2 2 2 2 1 1 1 1 1 1 1 1 1 1 1 1 1 1 1 0 1 1 0 0 1 1 2 3 2 3 3
7 7 5 5 4 3 3 3 2 2 2 2 2 2 2 1 1 1 1 1 1 1 1 1 1 1 1 1 1 1 1 1 1 1 1 1 1 1 1 2 2 1 3
8 7 6 5 4 4 3 3 3 2 2 2 2 2 2 2 1 1 1 1 1 1 1 1 1 1 1 2 1 1 1 1 1 1 1 1 1 1 2 2 1 1 1
7 7 6 5 4 4 4 3 3 3 3 2 2 2 2 2 1 1 2 2 1 1 1 0 0 0 0 1 1 1 1 1 1 1 1 1 1 1 2 2 2 1 2
6 6 6 5 5 4 4 4 3 2 2 2 2 2 2 2 1 1 1 2 2 2 1 1 2 2 2 2 1 0 0 1 1 1 1 1 2 2 1 2 2 2 2
5 5 6 5 5 4 4 4 4 3 3 3 3 2 2 2 0 0 1 2 2 1 2 2 2 1 2 2 2 3 2 2 2 2 2 2 2 2 2 2 2 2 2
5 5 5 4 4 4 3 3 3 3 3 2 3 3 3 3 2 1 2 3 3 2 2 2 2 2 2 1 2 3 3 2 3 3 2 3 2 1 2 3 3 3 3
5 4 5 4 4 4 3 3 3 3 3 3 3 3 3 3 4 3 3 3 3 3 3 3 2 2 2 2 3 3 3 3 3 3 3 3 3 3 2 1 2 2 3
4 4 4 4 3 3 3 3 2 2 3 3 3 3 4 4 5 5 4 3 3 3 3 3 4 3 3 3 3 3 4 3 2 2 2 3 4 5 5 4 3 3 3
4 4 3 3 3 3 3 2 2 2 3 3 3 3 4 5 6 8 7 4 3 3 3 3 3 5 5 5 5 4 5 4 3 4 4 4 4 4 4 4 4 3 4
4 4 3 3 3 3 2 2 3 3 4 4 4 4 4 4 6 8 9 8 6 5 4 3 2 3 6 7 6 5 5 4 4 4 3 3 3 3 4 4 4 4 4
4 4 3 3 2 2 3 4 4 4 4 4 4 4 4 4 5 8 9 9 9 5 4 3 3 5 6 6 7 7 5 4 4 4 4 4 4 3 3 3 4 4 4
3 3 3 3 3 3 3 4 4 3 4 3 3 3 3 2 2 3 3 4 5 5 4 4 5 6 6 5 5 5 5 5 4 5 4 3 3 3 3 3 3 3 3
3 3 3 4 3 2 3 3 3 2 3 3 3 2 2 2 1 1 1 2 2 2 2 3 3 3 3 4 4 4 4 4 5 5 4 3 3 3 3 3 2 2 3
3 3 3 3 3 3 3 2 3 3 4 4 3 3 2 2 2 3 3 3 3 2 2 4 4 4 4 4 4 4 3 4 4 4 4 4 3 3 3 3 3 3 4
2 3 3 2 3 3 3 3 3 3 4 5 5 5 6 5 4 4 4 3 3 3 4 5 5 4 4 3 3 3 3 3 3 3 3 3 3 3 3 3 3 3 3
3 3 3 3 4 4 3 3 4 4 3 3 4 7 8 7 7 6 4 1 2 3 4 5 5 4 3 3 3 3 3 2 2 3 3 3 3 4 3 3 3 3 3
3 2 2 3 4 3 3 4 4 5 3 3 2 3 5 6 5 5 5 4 5 5 5 4 4 4 3 3 3 3 3 3 3 3 3 3 3 4 4 4 4 4 4
1 2 3 3 4 4 4 4 4 4 3 2 2 1 1 2 3 3 5 5 6 5 5 4 3 3 3 3 3 3 3 3 4 4 4 3 3 3 4 5 4 4 3
2 2 4 4 4 4 4 4 4 3 3 3 3 2 2 3 3 3 3 4 4 3 3 3 3 3 3 3 3 4 4 4 3 3 3 3 3 3 3 4 4 4 3
3 2 2 3 3 3 3 4 4 3 3 3 3 2 3 3 2 2 2 2 2 2 3 3 4 3 3 2 2 3 4 3 3 3 3 3 3 3 4 4 4 3 4
4 3 2 3 3 3 4 3 2 2 3 3 3 2 1 2 2 2 2 2 2 2 3 3 3 3 2 2 1 1 2 3 3 3 3 4 3 3 3 4 5 5 4
4 3 3 3 2 3 3 3 2 3 3 3 2 2 1 1 1 2 2 2 2 2 2 2 2 3 3 1 1 1 2 2 3 3 4 5 5 4 4 4 5 6 5
3 3 3 3 3 3 2 3 3 3 3 3 2 2 2 2 2 2 2 2 3 3 4 3 2 2 2 3 3 2 2 3 3 4 4 5 6 6 5 6 5 5 5
4 4 3 3 3 3 3 3 3 3 3 3 3 3 3 3 3 3 3 2 3 3 3 3 4 4 3 2 2 2 2 2 2 3 4 5 6 5 5 5 6 5 6
Wind_Direction
171 173 167 168 179 171 181 184 144 139 144 148 136 141 155 154 161 195 225 196 227 246 266 235 243 278 313 304 295 284 258 167 226 272 107 100 117 115 151 193 168 166 171
164 163 165 166 165 169 174 171 148 152 157 153 153 158 179 162 164 178 221 228 234 242 253 258 258 255 252 295 308 303 304 244 182 245 151 176 194 180 190 214 190 179 171
163 165 168 169 163 162 160 150 144 149 155 159 157 168 175 164 175 200 217 238 241 243 237 245 258 269 268 287 290 293 288 286 181 199 234 191 192 194 196 236 197 184 190
161 164 164 168 167 160 150 149 159 168 172 172 175 182 173 159 173 218 223 230 243 250 225 240 272 293 295 280 270 303 310 303 262 210 205 203 170 198 195 208 223 209 204
157 161 162 166 161 157 157 160 165 176 180 176 183 180 177 168 194 221 266 228 237 250 238 220 239 125 35 295 288 317 290 274 255 229 226 212 195 192 219 225 218 206 207
157 160 159 163 162 162 165 163 163 167 172 180 186 189 194 195 161 174 237 269 243 224 234 224 217 206 190 189 190 213 319 273 286 276 253 237 233 228 232 242 220 213 226
156 157 157 162 163 166 176 168 176 178 183 196 196 182 165 163 167 265 228 250 254 224 230 246 261 242 190 215 219 219 232 247 240 247 267 267 263 241 241 257 250 245 233
160 162 159 165 168 166 174 176 186 188 190 204 206 185 182 193 192 212 275 256 252 244 233 231 240 241 259 266 250 237 234 239 243 238 241 262 262 253 232 238 245 248 245
159 159 159 162 164 166 171 182 188 193 197 210 205 196 196 198 202 204 231 255 250 249 241 236 228 225 234 242 244 249 252 252 247 251 244 237 244 250 246 244 246 241 251
153 150 150 154 164 174 177 182 191 198 210 218 210 203 201 201 198 201 217 248 254 249 236 227 217 217 218 226 237 239 245 249 251 246 237 240 234 233 229 220 228 240 248
141 139 145 146 163 178 166 170 189 211 220 226 224 219 205 202 197 204 204 234 255 264 251 240 222 196 213 230 243 247 247 256 249 239 233 230 226 227 223 224 229 235 245
142 147 156 163 188 178 167 191 204 215 221 223 226 234 228 205 198 204 208 224 251 264 264 261 233 219 232 239 241 244 248 253 252 245 239 236 233 232 230 226 227 229 239
150 158 169 179 191 182 193 211 220 221 226 232 225 227 233 215 201 208 209 224 241 253 273 291 279 249 246 242 238 234 234 239 244 248 243 238 229 230 233 227 223 229 242
157 169 180 191 204 198 211 221 222 226 230 234 234 239 241 235 206 192 207 223 240 250 271 283 269 248 243 242 235 224 223 232 238 245 247 242 232 225 228 226 226 220 231
169 180 199 215 209 205 221 233 237 231 230 234 251 260 272 264 241 171 219 235 246 251 274 266 261 244 234 233 230 225 222 224 233 245 251 249 242 240 237 229 221 223 229
196 205 219 225 209 211 220 220 224 228 221 215 222 238 247 220 205 205 219 231 232 213 225 253 256 253 247 244 244 240 232 231 229 229 236 241 243 239 239 236 228 230 240
226 227 236 239 232 230 225 225 239 241 238 242 238 238 239 233 224 226 233 242 244 197 225 250 254 255 256 253 247 250 251 243 233 236 238 242 246 248 243 241 235 232 238
246 239 240 246 247 245 240 241 246 250 243 235 231 231 230 227 223 221 211 191 249 226 235 247 256 258 257 252 253 257 259 258 245 240 246 250 252 257 253 246 243 242 244
254 263 265 267 264 257 255 256 257 255 248 243 233 220 218 219 217 222 202 223 243 249 249 246 248 255 255 249 249 253 255 254 257 255 251 252 253 256 260 257 252 254 247
262 265 264 273 272 267 261 262 264 266 262 259 259 258 175 192 210 211 209 224 239 249 251 253 255 259 264 262 253 248 246 247 249 246 246 245 251 256 259 262 261 256 249
270 248 237 254 266 276 280 281 280 278 277 273 269 246 205 223 233 233 229 224 237 259 275 278 274 267 262 257 258 256 254 250 247 253 245 241 250 256 262 264 266 264 266
287 281 264 266 270 275 278 277 278 282 288 287 283 252 199 230 253 256 260 264 267 267 271 271 276 281 285 283 284 286 279 271 263 265 264 254 249 255 260 261 261 261 260
290 293 295 294 286 283 274 277 283 295 298 297 295 297 213 247 277 284 292 294 291 279 275 274 277 284 287 286 298 297 293 299 295 285 277 269 265 264 263 265 267 269 269
288 290 290 289 280 280 297 307 305 306 305 305 315 321 314 291 293 297 298 296 293 287 283 279 279 294 309 319 309 296 300 311 313 303 297 289 280 271 267 263 260 259 257
304 309 309 310 310 313 324 332 334 323 315 314 317 320 316 308 306 311 321 327 318 312 315 319 313 323 352 345 337 334 345 347 331 316 301 288 282 273 266 264 264 265 263
330 335 344 349 346 349 351 347 346 342 329 329 339 343 338 332 329 331 334 334 328 327 326 327 331 338 345 360 19 12 350 334 318 305 293 285 283 279 280 277 273 269 266